Location: Newark
(49.8348°N, 24.0280°E)
Time: 01:34:46
(UTC+00:00)

S-56A Canister/Altair - Pass Details

Date: 29 January 2020
Orbit: 633 x 2500 km, 38.9° (Epoch: 26 February)

Event Time Altitude Azimuth Distance (km) Brightness Sun altitude
Rises 18:32:38 0° 243° (WSW) 4,314 12.1 -32.1°
Reaches altitude 10° 18:36:23 10° 233° (SW) 3,020 11.0 -32.7°
Enters shadow 18:40:22 24° 204° (SSW) 1,871 9.5 -33.4°
Maximum altitude 18:42:07 28° 178° (S) 1,625 - -33.6°
Drops below altitude 10° 18:46:30 10° 120° (ESE) 2,263 - -34.3°
Sets 18:48:55 0° 108° (ESE) 3,059 - -34.7°
